{"data":{"norad_id":66727,"epoch":"2026-09-18T03:29:13.080192Z","epoch_age_seconds":225355,"freshness":"STALE","line1":"1 66727U 25276BP  26261.14529028  .00004856  00000+0  22275-3 0  9991","line2":"2 66727  97.4156 333.2931 0005128  61.6320 298.5432 15.20891438 44541","mean_motion":15.20891438,"eccentricity":0.0005128,"inclination_deg":97.4156,"raan_deg":333.2931,"arg_perigee_deg":61.632,"mean_anomaly_deg":298.5432,"bstar":0.00022275,"rev_number":4454,"period_min":94.68131413072,"perigee_km":499.62169584356,"apogee_km":506.67914422155,"semimajor_km":6881.2874200326,"source":"CELESTRAK","updated_at":"2026-09-20T09:00:34.752136Z"}}